Year,Month,Day,Hour,Minute,Value (Times are PST for temperature in C)
2017,06,23,00,00,17.00
2017,06,23,00,01,17.00
2017,06,23,00,02,17.00
2017,06,23,00,03,17.00
2017,06,23,00,04,17.10
2017,06,23,00,05,17.10
2017,06,23,00,06,17.10
2017,06,23,00,07,17.20
2017,06,23,00,08,17.30
2017,06,23,00,09,17.30
2017,06,23,00,10,17.40
2017,06,23,00,11,17.40
2017,06,23,00,12,17.40
2017,06,23,00,13,17.40
2017,06,23,00,14,17.50
2017,06,23,00,15,17.50
2017,06,23,00,16,17.50
2017,06,23,00,17,17.50
2017,06,23,00,18,17.50
2017,06,23,00,19,17.50
2017,06,23,00,20,17.50
2017,06,23,00,21,17.50
2017,06,23,00,22,17.50
2017,06,23,00,23,17.50
2017,06,23,00,24,17.50
2017,06,23,00,25,17.50
2017,06,23,00,26,17.50
2017,06,23,00,27,17.40
2017,06,23,00,28,17.40
2017,06,23,00,29,17.40
2017,06,23,00,30,17.40
2017,06,23,00,31,17.30
2017,06,23,00,32,17.30
2017,06,23,00,33,17.30
2017,06,23,00,34,17.30
2017,06,23,00,35,17.20
2017,06,23,00,36,17.20
2017,06,23,00,37,17.20
2017,06,23,00,38,17.20
2017,06,23,00,39,17.10
2017,06,23,00,40,17.10
2017,06,23,00,41,17.10
2017,06,23,00,42,17.10
2017,06,23,00,43,17.00
2017,06,23,00,44,17.00
2017,06,23,00,45,17.00
2017,06,23,00,46,16.90
2017,06,23,00,47,16.90
2017,06,23,00,48,16.90
2017,06,23,00,49,16.90
2017,06,23,00,50,16.80
2017,06,23,00,51,16.80
2017,06,23,00,52,16.80
2017,06,23,00,53,16.80
2017,06,23,00,54,16.80
2017,06,23,00,55,16.70
2017,06,23,00,56,16.70
2017,06,23,00,57,16.70
2017,06,23,00,58,16.70
2017,06,23,00,59,16.60
2017,06,23,01,00,16.60
2017,06,23,01,01,16.50
2017,06,23,01,02,16.50
2017,06,23,01,03,16.40
2017,06,23,01,04,16.40
2017,06,23,01,05,16.30
2017,06,23,01,06,16.30
2017,06,23,01,07,16.30
2017,06,23,01,08,16.30
2017,06,23,01,09,16.30
2017,06,23,01,10,16.30
2017,06,23,01,11,16.30
2017,06,23,01,12,16.30
2017,06,23,01,13,16.30
2017,06,23,01,14,16.30
2017,06,23,01,15,16.30
2017,06,23,01,16,16.20
2017,06,23,01,17,16.20
2017,06,23,01,18,16.30
2017,06,23,01,19,16.30
2017,06,23,01,20,16.30
2017,06,23,01,21,16.30
2017,06,23,01,22,16.30
2017,06,23,01,23,16.40
2017,06,23,01,24,16.40
2017,06,23,01,25,16.50
2017,06,23,01,26,16.50
2017,06,23,01,27,16.60
2017,06,23,01,28,16.60
2017,06,23,01,29,16.60
2017,06,23,01,30,16.70
2017,06,23,01,31,16.80
2017,06,23,01,32,16.80
2017,06,23,01,33,16.90
2017,06,23,01,34,16.90
2017,06,23,01,35,17.00
2017,06,23,01,36,17.10
2017,06,23,01,37,17.10
2017,06,23,01,38,17.20
2017,06,23,01,39,17.20
2017,06,23,01,40,17.30
2017,06,23,01,41,17.40
2017,06,23,01,42,17.40
2017,06,23,01,43,17.40
2017,06,23,01,44,17.50
2017,06,23,01,45,17.50
2017,06,23,01,46,17.50
2017,06,23,01,47,17.60
2017,06,23,01,48,17.60
2017,06,23,01,49,17.70
2017,06,23,01,50,17.70
2017,06,23,01,51,17.70
2017,06,23,01,52,17.80
2017,06,23,01,53,17.80
2017,06,23,01,54,17.80
2017,06,23,01,55,17.80
2017,06,23,01,56,17.80
2017,06,23,01,57,17.80
2017,06,23,01,58,17.80
2017,06,23,01,59,17.80
2017,06,23,02,00,17.80
2017,06,23,02,01,17.80
2017,06,23,02,02,17.80
2017,06,23,02,03,17.80
2017,06,23,02,04,17.80
2017,06,23,02,05,17.80
2017,06,23,02,06,17.80
2017,06,23,02,07,17.80
2017,06,23,02,08,17.80
2017,06,23,02,09,17.80
2017,06,23,02,10,17.70
2017,06,23,02,11,17.70
2017,06,23,02,12,17.70
2017,06,23,02,13,17.70
2017,06,23,02,14,17.70
2017,06,23,02,15,17.70
2017,06,23,02,16,17.70
2017,06,23,02,17,17.70
2017,06,23,02,18,17.70
2017,06,23,02,19,17.70
2017,06,23,02,20,17.70
2017,06,23,02,21,17.70
2017,06,23,02,22,17.70
2017,06,23,02,23,17.70
2017,06,23,02,24,17.80
2017,06,23,02,25,17.80
2017,06,23,02,26,17.80
2017,06,23,02,27,17.70
2017,06,23,02,28,17.70
2017,06,23,02,29,17.70
2017,06,23,02,30,17.70
2017,06,23,02,31,17.70
2017,06,23,02,32,17.70
2017,06,23,02,33,17.70
2017,06,23,02,34,17.70
2017,06,23,02,35,17.70
2017,06,23,02,36,17.60
2017,06,23,02,37,17.60
2017,06,23,02,38,17.60
2017,06,23,02,39,17.60
2017,06,23,02,40,17.60
2017,06,23,02,41,17.60
2017,06,23,02,42,17.60
2017,06,23,02,43,17.50
2017,06,23,02,44,17.50
2017,06,23,02,45,17.50
2017,06,23,02,46,17.50
2017,06,23,02,47,17.50
2017,06,23,02,48,17.50
2017,06,23,02,49,17.60
2017,06,23,02,50,17.60
2017,06,23,02,51,17.60
2017,06,23,02,52,17.60
2017,06,23,02,53,17.60
2017,06,23,02,54,17.60
2017,06,23,02,55,17.60
2017,06,23,02,56,17.60
2017,06,23,02,57,17.50
2017,06,23,02,58,17.50
2017,06,23,02,59,17.50
2017,06,23,03,00,17.40
2017,06,23,03,01,17.40
2017,06,23,03,02,17.40
2017,06,23,03,03,17.30
2017,06,23,03,04,17.30
2017,06,23,03,05,17.30
2017,06,23,03,06,17.20
2017,06,23,03,07,17.20
2017,06,23,03,08,17.20
2017,06,23,03,09,17.20
2017,06,23,03,10,17.10
2017,06,23,03,11,17.10
2017,06,23,03,12,17.10
2017,06,23,03,13,17.10
2017,06,23,03,14,17.10
2017,06,23,03,15,17.00
2017,06,23,03,16,17.00
2017,06,23,03,17,16.90
2017,06,23,03,18,16.90
2017,06,23,03,19,16.90
2017,06,23,03,20,16.80
2017,06,23,03,21,16.80
2017,06,23,03,22,16.80
2017,06,23,03,23,16.80
2017,06,23,03,24,16.80
2017,06,23,03,25,16.80
2017,06,23,03,26,16.80
2017,06,23,03,27,16.80
2017,06,23,03,28,16.80
2017,06,23,03,29,16.80
2017,06,23,03,30,16.80
2017,06,23,03,31,16.80
2017,06,23,03,32,16.80
2017,06,23,03,33,16.80
2017,06,23,03,34,16.80
2017,06,23,03,35,16.80
2017,06,23,03,36,16.80
2017,06,23,03,37,16.80
2017,06,23,03,38,16.80
2017,06,23,03,39,16.80
2017,06,23,03,40,16.80
2017,06,23,03,41,16.80
2017,06,23,03,42,16.80
2017,06,23,03,43,16.80
2017,06,23,03,44,16.70
2017,06,23,03,45,16.70
2017,06,23,03,46,16.70
2017,06,23,03,47,16.70
2017,06,23,03,48,16.70
2017,06,23,03,49,16.70
2017,06,23,03,50,16.70
2017,06,23,03,51,16.70
2017,06,23,03,52,16.70
2017,06,23,03,53,16.70
2017,06,23,03,54,16.70
2017,06,23,03,55,16.70
2017,06,23,03,56,16.60
2017,06,23,03,57,16.60
2017,06,23,03,58,16.60
2017,06,23,03,59,16.60
2017,06,23,04,00,16.60
2017,06,23,04,01,16.50
2017,06,23,04,02,16.50
2017,06,23,04,03,16.50
2017,06,23,04,04,16.50
2017,06,23,04,05,16.50
2017,06,23,04,06,16.40
2017,06,23,04,07,16.40
2017,06,23,04,08,16.40
2017,06,23,04,09,16.30
2017,06,23,04,10,16.30
2017,06,23,04,11,16.30
2017,06,23,04,12,16.30
2017,06,23,04,13,16.30
2017,06,23,04,14,16.20
2017,06,23,04,15,16.20
2017,06,23,04,16,16.20
2017,06,23,04,17,16.20
2017,06,23,04,18,16.20
2017,06,23,04,19,16.20
2017,06,23,04,20,16.20
2017,06,23,04,21,16.30
2017,06,23,04,22,16.30
2017,06,23,04,23,16.30
2017,06,23,04,24,16.40
2017,06,23,04,25,16.40
2017,06,23,04,26,16.40
2017,06,23,04,27,16.50
2017,06,23,04,28,16.50
2017,06,23,04,29,16.50
2017,06,23,04,30,16.60
2017,06,23,04,31,16.60
2017,06,23,04,32,16.60
2017,06,23,04,33,16.70
2017,06,23,04,34,16.70
2017,06,23,04,35,16.70
2017,06,23,04,36,16.70
2017,06,23,04,37,16.70
2017,06,23,04,38,16.70
2017,06,23,04,39,16.70
2017,06,23,04,40,16.70
2017,06,23,04,41,16.70
2017,06,23,04,42,16.70
2017,06,23,04,43,16.70
2017,06,23,04,44,16.60
2017,06,23,04,45,16.60
2017,06,23,04,46,16.60
2017,06,23,04,47,16.60
2017,06,23,04,48,16.60
2017,06,23,04,49,16.60
2017,06,23,04,50,16.60
2017,06,23,04,51,16.50
2017,06,23,04,52,16.50
2017,06,23,04,53,16.40
2017,06,23,04,54,16.40
2017,06,23,04,55,16.40
2017,06,23,04,56,16.40
2017,06,23,04,57,16.40
2017,06,23,04,58,16.40
2017,06,23,04,59,16.40
2017,06,23,05,00,16.40
2017,06,23,05,01,16.40
2017,06,23,05,02,16.40
2017,06,23,05,03,16.40
2017,06,23,05,04,16.40
2017,06,23,05,05,16.40
2017,06,23,05,06,16.40
2017,06,23,05,07,16.40
2017,06,23,05,08,16.40
2017,06,23,05,09,16.50
2017,06,23,05,10,16.50
2017,06,23,05,11,16.50
2017,06,23,05,12,16.50
2017,06,23,05,13,16.40
2017,06,23,05,14,16.40
2017,06,23,05,15,16.40
2017,06,23,05,16,16.30
2017,06,23,05,17,16.30
2017,06,23,05,18,16.20
2017,06,23,05,19,16.10
2017,06,23,05,20,16.10
2017,06,23,05,21,16.00
2017,06,23,05,22,16.00
2017,06,23,05,23,15.90
2017,06,23,05,24,15.90
2017,06,23,05,25,15.90
2017,06,23,05,26,15.80
2017,06,23,05,27,15.80
2017,06,23,05,28,15.80
2017,06,23,05,29,15.70
2017,06,23,05,30,15.70
2017,06,23,05,31,15.70
2017,06,23,05,32,15.70
2017,06,23,05,33,15.70
2017,06,23,05,34,15.70
2017,06,23,05,35,15.80
2017,06,23,05,36,15.80
2017,06,23,05,37,15.90
2017,06,23,05,38,15.90
2017,06,23,05,39,16.00
2017,06,23,05,40,16.00
2017,06,23,05,41,16.10
2017,06,23,05,42,16.10
2017,06,23,05,43,16.20
2017,06,23,05,44,16.20
2017,06,23,05,45,16.30
2017,06,23,05,46,16.30
2017,06,23,05,47,16.30
2017,06,23,05,48,16.30
2017,06,23,05,49,16.30
2017,06,23,05,50,16.30
2017,06,23,05,51,16.30
2017,06,23,05,52,16.40
2017,06,23,05,53,16.40
2017,06,23,05,54,16.40
2017,06,23,05,55,16.40
2017,06,23,05,56,16.40
2017,06,23,05,57,16.50
2017,06,23,05,58,16.50
2017,06,23,05,59,16.50
2017,06,23,06,00,16.50
2017,06,23,06,01,16.60
2017,06,23,06,02,16.60
2017,06,23,06,03,16.60
2017,06,23,06,04,16.70
2017,06,23,06,05,16.70
2017,06,23,06,06,16.70
2017,06,23,06,07,16.70
2017,06,23,06,08,16.80
2017,06,23,06,09,16.80
2017,06,23,06,10,16.70
2017,06,23,06,11,16.80
2017,06,23,06,12,16.70
2017,06,23,06,13,16.70
2017,06,23,06,14,16.70
2017,06,23,06,15,16.70
2017,06,23,06,16,16.70
2017,06,23,06,17,16.70
2017,06,23,06,18,16.70
2017,06,23,06,19,16.70
2017,06,23,06,20,16.70
2017,06,23,06,21,16.60
2017,06,23,06,22,16.60
2017,06,23,06,23,16.60
2017,06,23,06,24,16.60
2017,06,23,06,25,16.60
2017,06,23,06,26,16.60
2017,06,23,06,27,16.60
2017,06,23,06,28,16.60
2017,06,23,06,29,16.60
2017,06,23,06,30,16.70
2017,06,23,06,31,16.70
2017,06,23,06,32,16.70
2017,06,23,06,33,16.70
2017,06,23,06,34,16.70
2017,06,23,06,35,16.80
2017,06,23,06,36,16.80
2017,06,23,06,37,16.80
2017,06,23,06,38,16.80
2017,06,23,06,39,16.80
2017,06,23,06,40,16.80
2017,06,23,06,41,16.80
2017,06,23,06,42,16.80
2017,06,23,06,43,16.90
2017,06,23,06,44,16.90
2017,06,23,06,45,16.90
2017,06,23,06,46,16.90
2017,06,23,06,47,16.90
2017,06,23,06,48,16.90
2017,06,23,06,49,17.00
2017,06,23,06,50,17.00
2017,06,23,06,51,17.00
2017,06,23,06,52,17.00
2017,06,23,06,53,17.10
2017,06,23,06,54,17.10
2017,06,23,06,55,17.10
2017,06,23,06,56,17.10
2017,06,23,06,57,17.10
2017,06,23,06,58,17.20
2017,06,23,06,59,17.20
2017,06,23,07,00,17.20
2017,06,23,07,01,17.20
2017,06,23,07,02,17.20
2017,06,23,07,03,17.30
2017,06,23,07,04,17.30
2017,06,23,07,05,17.30
2017,06,23,07,06,17.30
2017,06,23,07,07,17.30
2017,06,23,07,08,17.40
2017,06,23,07,09,17.40
2017,06,23,07,10,17.40
2017,06,23,07,11,17.40
2017,06,23,07,12,17.50
2017,06,23,07,13,17.50
2017,06,23,07,14,17.50
2017,06,23,07,15,17.60
2017,06,23,07,16,17.60
2017,06,23,07,17,17.60
2017,06,23,07,18,17.60
2017,06,23,07,19,17.70
2017,06,23,07,20,17.70
2017,06,23,07,21,17.70
2017,06,23,07,22,17.70
2017,06,23,07,23,17.80
2017,06,23,07,24,17.80
2017,06,23,07,25,17.80
2017,06,23,07,26,17.80
2017,06,23,07,27,17.90
2017,06,23,07,28,17.90
2017,06,23,07,29,17.90
2017,06,23,07,30,17.90
2017,06,23,07,31,17.90
2017,06,23,07,32,18.00
2017,06,23,07,33,18.00
2017,06,23,07,34,18.00
2017,06,23,07,35,18.10
2017,06,23,07,36,18.10
2017,06,23,07,37,18.10
2017,06,23,07,38,18.10
2017,06,23,07,39,18.10
2017,06,23,07,40,18.10
2017,06,23,07,41,18.10
2017,06,23,07,42,18.10
2017,06,23,07,43,18.20
2017,06,23,07,44,18.20
2017,06,23,07,45,18.20
2017,06,23,07,46,18.20
2017,06,23,07,47,18.20
2017,06,23,07,48,18.30
2017,06,23,07,49,18.30
2017,06,23,07,50,18.30
2017,06,23,07,51,18.30
2017,06,23,07,52,18.40
2017,06,23,07,53,18.40
2017,06,23,07,54,18.40
2017,06,23,07,55,18.40
2017,06,23,07,56,18.40
2017,06,23,07,57,18.40
2017,06,23,07,58,18.40
2017,06,23,07,59,18.50
2017,06,23,08,00,18.50
2017,06,23,08,01,18.50
2017,06,23,08,02,18.60
2017,06,23,08,03,18.60
2017,06,23,08,04,18.60
2017,06,23,08,05,18.70
2017,06,23,08,06,18.70
2017,06,23,08,07,18.70
2017,06,23,08,08,18.70
2017,06,23,08,09,18.80
2017,06,23,08,10,18.80
2017,06,23,08,11,18.80
2017,06,23,08,12,18.80
2017,06,23,08,13,18.80
2017,06,23,08,14,18.80
2017,06,23,08,15,18.80
2017,06,23,08,16,18.90
2017,06,23,08,17,18.90
2017,06,23,08,18,18.90
2017,06,23,08,19,18.90
2017,06,23,08,20,19.00
2017,06,23,08,21,19.00
2017,06,23,08,22,19.10
2017,06,23,08,23,19.10
2017,06,23,08,24,19.20
2017,06,23,08,25,19.20
2017,06,23,08,26,19.30
2017,06,23,08,27,19.30
2017,06,23,08,28,19.30
2017,06,23,08,29,19.30
2017,06,23,08,30,19.30
2017,06,23,08,31,19.30
2017,06,23,08,32,19.30
2017,06,23,08,33,19.30
2017,06,23,08,34,19.30
2017,06,23,08,35,19.30
2017,06,23,08,36,19.40
2017,06,23,08,37,19.40
2017,06,23,08,38,19.40
2017,06,23,08,39,19.50
2017,06,23,08,40,19.50
2017,06,23,08,41,19.60
2017,06,23,08,42,19.60
2017,06,23,08,43,19.60
2017,06,23,08,44,19.70
2017,06,23,08,45,19.70
2017,06,23,08,46,19.70
2017,06,23,08,47,19.70
2017,06,23,08,48,19.70
2017,06,23,08,49,19.70
2017,06,23,08,50,19.80
2017,06,23,08,51,19.80
2017,06,23,08,52,19.80
2017,06,23,08,53,19.80
2017,06,23,08,54,19.80
2017,06,23,08,55,19.80
2017,06,23,08,56,19.80
2017,06,23,08,57,19.80
2017,06,23,08,58,19.80
2017,06,23,08,59,19.80
2017,06,23,09,00,19.80
2017,06,23,09,01,19.80
2017,06,23,09,02,19.80
2017,06,23,09,03,19.80
2017,06,23,09,04,19.80
2017,06,23,09,05,19.80
2017,06,23,09,06,19.80
2017,06,23,09,07,19.90
2017,06,23,09,08,19.90
2017,06,23,09,09,19.90
2017,06,23,09,10,19.90
2017,06,23,09,11,19.90
2017,06,23,09,12,20.00
2017,06,23,09,13,20.00
2017,06,23,09,14,20.10
2017,06,23,09,15,20.10
2017,06,23,09,16,20.20
2017,06,23,09,17,20.30
2017,06,23,09,18,20.30
2017,06,23,09,19,20.40
2017,06,23,09,20,20.40
2017,06,23,09,21,20.40
2017,06,23,09,22,20.40
2017,06,23,09,23,20.50
2017,06,23,09,24,20.50
2017,06,23,09,25,20.60
2017,06,23,09,26,20.60
2017,06,23,09,27,20.70
2017,06,23,09,28,20.70
2017,06,23,09,29,20.70
2017,06,23,09,30,20.70
2017,06,23,09,31,20.70
2017,06,23,09,32,20.70
2017,06,23,09,33,20.70
2017,06,23,09,34,20.70
2017,06,23,09,35,20.70
2017,06,23,09,36,20.70
2017,06,23,09,37,20.70
2017,06,23,09,38,20.70
2017,06,23,09,39,20.70
2017,06,23,09,40,20.70
2017,06,23,09,41,20.70
2017,06,23,09,42,20.70
2017,06,23,09,43,20.70
2017,06,23,09,44,20.70
2017,06,23,09,45,20.60
2017,06,23,09,46,20.60
2017,06,23,09,47,20.60
2017,06,23,09,48,20.60
2017,06,23,09,49,20.70
2017,06,23,09,50,20.70
2017,06,23,09,51,20.70
2017,06,23,09,52,20.80
2017,06,23,09,53,20.80
2017,06,23,09,54,20.80
2017,06,23,09,55,20.80
2017,06,23,09,56,20.80
2017,06,23,09,57,20.80
2017,06,23,09,58,20.80
2017,06,23,09,59,20.90
2017,06,23,10,00,21.00
2017,06,23,10,01,21.10
2017,06,23,10,02,21.20
2017,06,23,10,03,21.20
2017,06,23,10,04,21.20
2017,06,23,10,05,21.30
2017,06,23,10,06,21.30
2017,06,23,10,07,21.40
2017,06,23,10,08,21.50
2017,06,23,10,09,21.60
2017,06,23,10,10,21.60
2017,06,23,10,11,21.50
2017,06,23,10,12,21.50
2017,06,23,10,13,21.40
2017,06,23,10,14,21.40
2017,06,23,10,15,21.40
2017,06,23,10,16,21.40
2017,06,23,10,17,21.40
2017,06,23,10,18,21.40
2017,06,23,10,19,21.50
2017,06,23,10,20,21.50
2017,06,23,10,21,21.60
2017,06,23,10,22,21.50
2017,06,23,10,23,21.50
2017,06,23,10,24,21.50
2017,06,23,10,25,21.50
2017,06,23,10,26,21.60
2017,06,23,10,27,21.60
2017,06,23,10,28,21.60
2017,06,23,10,29,21.50
2017,06,23,10,30,21.50
2017,06,23,10,31,21.50
2017,06,23,10,32,21.50
2017,06,23,10,33,21.50
2017,06,23,10,34,21.60
2017,06,23,10,35,21.70
2017,06,23,10,36,21.80
2017,06,23,10,37,21.80
2017,06,23,10,38,21.80
2017,06,23,10,39,21.90
2017,06,23,10,40,21.90
2017,06,23,10,41,21.90
2017,06,23,10,42,21.90
2017,06,23,10,43,21.90
2017,06,23,10,44,21.90
2017,06,23,10,45,22.00
2017,06,23,10,46,21.90
2017,06,23,10,47,21.90
2017,06,23,10,48,22.00
2017,06,23,10,49,22.00
2017,06,23,10,50,22.00
2017,06,23,10,51,22.10
2017,06,23,10,52,22.20
2017,06,23,10,53,22.30
2017,06,23,10,54,22.40
2017,06,23,10,55,22.40
2017,06,23,10,56,22.50
2017,06,23,10,57,22.60
2017,06,23,10,58,22.70
2017,06,23,10,59,22.80
2017,06,23,11,00,22.80
2017,06,23,11,01,22.80
2017,06,23,11,02,22.80
2017,06,23,11,03,22.80
2017,06,23,11,04,22.70
2017,06,23,11,05,22.70
2017,06,23,11,06,22.70
2017,06,23,11,07,22.70
2017,06,23,11,08,22.70
2017,06,23,11,09,22.70
2017,06,23,11,10,22.80
2017,06,23,11,11,22.80
2017,06,23,11,12,22.80
2017,06,23,11,13,22.90
2017,06,23,11,14,22.90
2017,06,23,11,15,22.90
2017,06,23,11,16,22.90
2017,06,23,11,17,22.90
2017,06,23,11,18,22.90
2017,06,23,11,19,22.90
2017,06,23,11,20,22.90
2017,06,23,11,21,22.90
2017,06,23,11,22,23.00
2017,06,23,11,23,23.10
2017,06,23,11,24,23.10
2017,06,23,11,25,23.10
2017,06,23,11,26,23.10
2017,06,23,11,27,23.10
2017,06,23,11,28,23.10
2017,06,23,11,29,23.10
2017,06,23,11,30,23.10
2017,06,23,11,31,23.10
2017,06,23,11,32,23.10
2017,06,23,11,33,23.20
2017,06,23,11,34,23.20
2017,06,23,11,35,23.20
2017,06,23,11,36,23.20
2017,06,23,11,37,23.20
2017,06,23,11,38,23.20
2017,06,23,11,39,23.20
2017,06,23,11,40,23.20
2017,06,23,11,41,23.30
2017,06,23,11,42,23.40
2017,06,23,11,43,23.40
2017,06,23,11,44,23.50
2017,06,23,11,45,23.50
2017,06,23,11,46,23.50
2017,06,23,11,47,23.40
2017,06,23,11,48,23.30
2017,06,23,11,49,23.30
2017,06,23,11,50,23.30
2017,06,23,11,51,23.30
2017,06,23,11,52,23.30
2017,06,23,11,53,23.30
2017,06,23,11,54,23.30
2017,06,23,11,55,23.40
2017,06,23,11,56,23.50
2017,06,23,11,57,23.60
2017,06,23,11,58,23.60
2017,06,23,11,59,23.50
2017,06,23,12,00,23.40
2017,06,23,12,01,23.40
2017,06,23,12,02,23.40
2017,06,23,12,03,23.40
2017,06,23,12,04,23.40
2017,06,23,12,05,23.50
2017,06,23,12,06,23.60
2017,06,23,12,07,23.70
2017,06,23,12,08,23.70
2017,06,23,12,09,23.70
2017,06,23,12,10,23.70
2017,06,23,12,11,23.70
2017,06,23,12,12,23.70
2017,06,23,12,13,23.70
2017,06,23,12,14,23.80
2017,06,23,12,15,23.80
2017,06,23,12,16,23.90
2017,06,23,12,17,24.00
2017,06,23,12,18,24.10
2017,06,23,12,19,24.10
2017,06,23,12,20,24.10
2017,06,23,12,21,24.10
2017,06,23,12,22,24.10
2017,06,23,12,23,24.00
2017,06,23,12,24,24.00
2017,06,23,12,25,24.00
2017,06,23,12,26,24.00
2017,06,23,12,27,24.00
2017,06,23,12,28,24.10
2017,06,23,12,29,24.00
2017,06,23,12,30,24.00
2017,06,23,12,31,24.00
2017,06,23,12,32,24.00
2017,06,23,12,33,24.00
2017,06,23,12,34,24.00
2017,06,23,12,35,24.10
2017,06,23,12,36,24.10
2017,06,23,12,37,24.10
2017,06,23,12,38,24.10
2017,06,23,12,39,24.10
2017,06,23,12,40,24.10
2017,06,23,12,41,24.20
2017,06,23,12,42,24.20
2017,06,23,12,43,24.20
2017,06,23,12,44,24.30
2017,06,23,12,45,24.30
2017,06,23,12,46,24.30
2017,06,23,12,47,24.40
2017,06,23,12,48,24.50
2017,06,23,12,49,24.60
2017,06,23,12,50,24.60
2017,06,23,12,51,24.70
2017,06,23,12,52,24.70
2017,06,23,12,53,24.70
2017,06,23,12,54,24.70
2017,06,23,12,55,24.70
2017,06,23,12,56,24.70
2017,06,23,12,57,24.70
2017,06,23,12,58,24.80
2017,06,23,12,59,24.80
2017,06,23,13,00,24.70
2017,06,23,13,01,24.70
2017,06,23,13,02,24.70
2017,06,23,13,03,24.70
2017,06,23,13,04,24.70
2017,06,23,13,05,24.70
2017,06,23,13,06,24.80
2017,06,23,13,07,24.80
2017,06,23,13,08,24.90
2017,06,23,13,09,24.90
2017,06,23,13,10,24.80
2017,06,23,13,11,24.80
2017,06,23,13,12,24.80
2017,06,23,13,13,24.80
2017,06,23,13,14,24.80
2017,06,23,13,15,24.70
2017,06,23,13,16,24.60
2017,06,23,13,17,24.50
2017,06,23,13,18,24.50
2017,06,23,13,19,24.40
2017,06,23,13,20,24.40
2017,06,23,13,21,24.40
2017,06,23,13,22,24.30
2017,06,23,13,23,24.30
2017,06,23,13,24,24.30
2017,06,23,13,25,24.30
2017,06,23,13,26,24.40
2017,06,23,13,27,24.50
2017,06,23,13,28,24.50
2017,06,23,13,29,24.40
2017,06,23,13,30,24.40
2017,06,23,13,31,24.50
2017,06,23,13,32,24.70
2017,06,23,13,33,24.80
2017,06,23,13,34,24.90
2017,06,23,13,35,24.90
2017,06,23,13,36,24.80
2017,06,23,13,37,24.80
2017,06,23,13,38,24.80
2017,06,23,13,39,24.80
2017,06,23,13,40,24.80
2017,06,23,13,41,24.80
2017,06,23,13,42,24.90
2017,06,23,13,43,24.80
2017,06,23,13,44,24.80
2017,06,23,13,45,24.80
2017,06,23,13,46,24.80
2017,06,23,13,47,24.90
2017,06,23,13,48,24.90
2017,06,23,13,49,25.00
2017,06,23,13,50,25.10
2017,06,23,13,51,25.10
2017,06,23,13,52,25.20
2017,06,23,13,53,25.20
2017,06,23,13,54,25.30
2017,06,23,13,55,25.40
2017,06,23,13,56,25.30
2017,06,23,13,57,25.30
2017,06,23,13,58,25.40
2017,06,23,13,59,25.40
2017,06,23,14,00,25.40
2017,06,23,14,01,25.40
2017,06,23,14,02,25.30
2017,06,23,14,03,25.30
2017,06,23,14,04,25.30
2017,06,23,14,05,25.30
2017,06,23,14,06,25.30
2017,06,23,14,07,25.30
2017,06,23,14,08,25.30
2017,06,23,14,09,25.30
2017,06,23,14,10,25.30
2017,06,23,14,11,25.40
2017,06,23,14,12,25.40
2017,06,23,14,13,25.40
2017,06,23,14,14,25.30
2017,06,23,14,15,25.30
2017,06,23,14,16,25.30
2017,06,23,14,17,25.30
2017,06,23,14,18,25.40
2017,06,23,14,19,25.50
2017,06,23,14,20,25.50
2017,06,23,14,21,25.60
2017,06,23,14,22,25.60
2017,06,23,14,23,25.60
2017,06,23,14,24,25.60
2017,06,23,14,25,25.60
2017,06,23,14,26,25.60
2017,06,23,14,27,25.50
2017,06,23,14,28,25.60
2017,06,23,14,29,25.60
2017,06,23,14,30,25.80
2017,06,23,14,31,25.90
2017,06,23,14,32,25.90
2017,06,23,14,33,26.00
2017,06,23,14,34,25.90
2017,06,23,14,35,25.90
2017,06,23,14,36,26.00
2017,06,23,14,37,26.10
2017,06,23,14,38,26.20
2017,06,23,14,39,26.30
2017,06,23,14,40,26.40
2017,06,23,14,41,26.40
2017,06,23,14,42,26.30
2017,06,23,14,43,26.30
2017,06,23,14,44,26.30
2017,06,23,14,45,26.30
2017,06,23,14,46,26.30
2017,06,23,14,47,26.30
2017,06,23,14,48,26.30
2017,06,23,14,49,26.30
2017,06,23,14,50,26.30
2017,06,23,14,51,26.30
2017,06,23,14,52,26.30
2017,06,23,14,53,26.30
2017,06,23,14,54,26.30
2017,06,23,14,55,26.20
2017,06,23,14,56,26.20
2017,06,23,14,57,26.20
2017,06,23,14,58,26.30
2017,06,23,14,59,26.20
2017,06,23,15,00,26.30
2017,06,23,15,01,26.30
2017,06,23,15,02,26.40
2017,06,23,15,03,26.40
2017,06,23,15,04,26.40
2017,06,23,15,05,26.40
2017,06,23,15,06,26.50
2017,06,23,15,07,26.60
2017,06,23,15,08,26.60
2017,06,23,15,09,26.70
2017,06,23,15,10,26.80
2017,06,23,15,11,26.80
2017,06,23,15,12,26.80
2017,06,23,15,13,26.80
2017,06,23,15,14,26.80
2017,06,23,15,15,26.70
2017,06,23,15,16,26.70
2017,06,23,15,17,26.70
2017,06,23,15,18,26.80
2017,06,23,15,19,26.80
2017,06,23,15,20,26.80
2017,06,23,15,21,26.70
2017,06,23,15,22,26.70
2017,06,23,15,23,26.70
2017,06,23,15,24,26.70
2017,06,23,15,25,26.80
2017,06,23,15,26,26.80
2017,06,23,15,27,26.90
2017,06,23,15,28,26.90
2017,06,23,15,29,26.90
2017,06,23,15,30,26.90
2017,06,23,15,31,26.90
2017,06,23,15,32,26.90
2017,06,23,15,33,27.00
2017,06,23,15,34,27.00
2017,06,23,15,35,27.00
2017,06,23,15,36,26.90
2017,06,23,15,37,27.00
2017,06,23,15,38,27.10
2017,06,23,15,39,27.10
2017,06,23,15,40,27.10
2017,06,23,15,41,27.10
2017,06,23,15,42,27.10
2017,06,23,15,43,27.10
2017,06,23,15,44,27.10
2017,06,23,15,45,27.20
2017,06,23,15,46,27.30
2017,06,23,15,47,27.40
2017,06,23,15,48,27.40
2017,06,23,15,49,27.50
2017,06,23,15,50,27.40
2017,06,23,15,51,27.40
2017,06,23,15,52,27.40
2017,06,23,15,53,27.40
2017,06,23,15,54,27.30
2017,06,23,15,55,27.30
2017,06,23,15,56,27.30
2017,06,23,15,57,27.20
2017,06,23,15,58,27.20
2017,06,23,15,59,27.20
2017,06,23,16,00,27.20
2017,06,23,16,01,27.20
2017,06,23,16,02,27.20
2017,06,23,16,03,27.20
2017,06,23,16,04,27.20
2017,06,23,16,05,27.20
2017,06,23,16,06,27.20
2017,06,23,16,07,27.20
2017,06,23,16,08,27.20
2017,06,23,16,09,27.20
2017,06,23,16,10,27.20
2017,06,23,16,11,27.30
2017,06,23,16,12,27.30
2017,06,23,16,13,27.30
2017,06,23,16,14,27.30
2017,06,23,16,15,27.30
2017,06,23,16,16,27.30
2017,06,23,16,17,27.40
2017,06,23,16,18,27.40
2017,06,23,16,19,27.40
2017,06,23,16,20,27.50
2017,06,23,16,21,27.50
2017,06,23,16,22,27.60
2017,06,23,16,23,27.60
2017,06,23,16,24,27.60
2017,06,23,16,25,27.60
2017,06,23,16,26,27.60
2017,06,23,16,27,27.70
2017,06,23,16,28,27.70
2017,06,23,16,29,27.80
2017,06,23,16,30,27.80
2017,06,23,16,31,27.70
2017,06,23,16,32,27.70
2017,06,23,16,33,27.80
2017,06,23,16,34,27.80
2017,06,23,16,35,27.80
2017,06,23,16,36,27.80
2017,06,23,16,37,27.80
2017,06,23,16,38,27.80
2017,06,23,16,39,27.70
2017,06,23,16,40,27.70
2017,06,23,16,41,27.60
2017,06,23,16,42,27.60
2017,06,23,16,43,27.70
2017,06,23,16,44,27.70
2017,06,23,16,45,27.80
2017,06,23,16,46,27.90
2017,06,23,16,47,27.90
2017,06,23,16,48,27.90
2017,06,23,16,49,27.90
2017,06,23,16,50,27.80
2017,06,23,16,51,27.80
2017,06,23,16,52,27.80
2017,06,23,16,53,27.90
2017,06,23,16,54,27.90
2017,06,23,16,55,27.90
2017,06,23,16,56,27.90
2017,06,23,16,57,27.90
2017,06,23,16,58,27.90
2017,06,23,16,59,27.80
2017,06,23,17,00,27.90
2017,06,23,17,01,27.90
2017,06,23,17,02,27.90
2017,06,23,17,03,27.90
2017,06,23,17,04,27.90
2017,06,23,17,05,27.90
2017,06,23,17,06,27.90
2017,06,23,17,07,27.90
2017,06,23,17,08,27.90
2017,06,23,17,09,27.90
2017,06,23,17,10,27.90
2017,06,23,17,11,27.90
2017,06,23,17,12,28.00
2017,06,23,17,13,28.00
2017,06,23,17,14,28.00
2017,06,23,17,15,28.00
2017,06,23,17,16,28.00
2017,06,23,17,17,27.90
2017,06,23,17,18,27.90
2017,06,23,17,19,27.90